Location: Julian California
(33.0790°N, 116.6010°W)
Time: 15:36:39
(UTC-07:00)

Cosmos 864 Rocket - Pass Details

Date: 12 July 2018
Orbit: 953 x 992 km, 82.9° (Epoch: 18 July)

Event Time Altitude Azimuth Distance (km) Brightness Sun altitude
Rises 23:14:00 0° 353° (N) 3,644 8.5 -30.3°
Reaches altitude 10° 23:16:30 10° 353° (N) 2,690 7.6 -30.5°
Enters shadow 23:22:12 77° 336° (NNW) 978 4.4 -31.1°
